Home   Weather   Solingen   Past weeks

Flag for Germany Past Weather in Solingen, North Rhine-Westphalia, Germany — Yesterday and Last 2 Weeks

Now
72 °F

Broken clouds.


Feels Like: 76 °F
Forecast: 57 / 72 °F
Wind: 9 mph from West

Location: Duesseldorf

Current Time: Jun 23, 2017 at 12:30:11 pm

Latest Report: Jun 23, 2017 at 11:50 am


Visibility: N/A

Pressure: 30.01 "Hg

Humidity: 61%

Dew Point: 57 °F

Location of SolingenLocation

Past Weather in Solingen — Graph

°F

Solingen Temperature Yesterday

Maximum temperature yesterday: 95 °F (at 2:20 pm)
Minimum temperature yesterday: 66 °F (at 1:20 am)
Average temperature yesterday: 80 °F

High & Low Weather Summary for the Past Weeks

 TemperatureHumidityPressure
High95 °F (Jun 22, 2:20 pm)100% (Jun 14, 5:50 am)30.30 "Hg (Jun 14, 5:50 am)
Low48 °F (Jun 14, 5:50 am)27% (Jun 19, 5:20 pm)29.74 "Hg (Jun 22, 4:50 pm)
Average69 °F61%30.05 "Hg
* Reported Jun 8 11:20 am — Jun 23 11:20 am, Solingen. Weather by CustomWeather, © 2017

Note: Actual official high and low records may vary slightly from our data, if they occured in-between our weather recording intervals... More about our weather records

Advertising

Solingen Weather History for the Previous 24 Hours

Scroll right to see more
 ConditionsComfort  
Time TempWeatherWind HumidityBarometerVisibility
11:20 am
Fri, Jun 23
72 °FBroken clouds.10 mph61%29.98 "HgN/A
10:50 am70 °FBroken clouds.12 mph64%29.98 "HgN/A
10:20 am70 °FBroken clouds.10 mph69%29.98 "HgN/A
9:50 am68 °FPartly sunny.10 mph73%29.98 "HgN/A
9:20 am68 °FBroken clouds.10 mph73%29.98 "HgN/A
8:50 am66 °FBroken clouds.12 mph73%29.98 "HgN/A
8:20 am68 °FPartly sunny.15 mph73%29.95 "HgN/A
7:50 am66 °FBroken clouds.12 mph73%29.95 "HgN/A
7:20 am66 °FPartly sunny.13 mph73%29.95 "HgN/A
6:50 am66 °FBroken clouds.10 mph78%29.95 "HgN/A
6:20 am66 °FBroken clouds.8 mph78%29.92 "HgN/A
5:50 am66 °FPartly sunny.9 mph78%29.92 "HgN/A
5:20 am66 °FBroken clouds.9 mph78%29.92 "HgN/A
4:50 am66 °FPassing clouds.6 mph78%29.92 "HgN/A
4:20 am66 °FPassing clouds.8 mph78%29.92 "HgN/A
3:50 am66 °FPassing clouds.8 mph73%29.92 "HgN/A
3:20 am66 °FPassing clouds.9 mph73%29.92 "HgN/A
2:50 am68 °FPassing clouds.14 mph69%29.92 "HgN/A
2:20 am68 °FPassing clouds.9 mph69%29.92 "HgN/A
1:50 am68 °FPassing clouds.12 mph69%29.92 "HgN/A
1:20 am68 °FPassing clouds.8 mph69%29.92 "HgN/A
12:50 am68 °FPassing clouds.13 mph69%29.92 "HgN/A
12:20 am68 °FPassing clouds.12 mph69%29.92 "HgN/A
11:50 pm
Thu, Jun 22
70 °FPassing clouds.13 mph60%29.89 "HgN/A
11:20 pm72 °FPassing clouds.14 mph61%29.89 "HgN/A
10:50 pm72 °FPassing clouds.12 mph61%29.86 "HgN/A
10:20 pm72 °FPassing clouds.14 mph61%29.86 "HgN/A
9:50 pm72 °FPassing clouds.15 mph69%29.86 "HgN/A
9:20 pm73 °FPassing clouds.17 mph69%29.83 "HgN/A
8:50 pm77 °FSunny.13 mph57%29.80 "Hg10 mi
8:20 pm77 °FPassing clouds.10 mph54%29.80 "HgN/A
7:50 pm79 °FScattered clouds.21 mph51%29.80 "HgN/A
7:20 pm84 °FScattered clouds.15 mph43%29.77 "HgN/A
6:50 pm86 °FPassing clouds.18 mph40%29.74 "HgN/A
6:20 pm91 °FThundershowers. Broken clouds.16 mph38%29.74 "HgN/A
5:50 pm93 °FPartly sunny.20 mph34%29.74 "HgN/A
5:20 pm93 °FBroken clouds.21 mph34%29.74 "HgN/A
4:50 pm93 °FPartly sunny.20 mph32%29.74 "HgN/A
4:20 pm95 °FPassing clouds.18 mph30%29.77 "HgN/A
3:50 pm95 °FPassing clouds.18 mph30%29.77 "HgN/A
3:20 pm93 °FPartly sunny.15 mph32%29.77 "HgN/A
2:50 pm93 °FPartly sunny.18 mph32%29.80 "HgN/A
2:20 pm95 °FPartly sunny.15 mph34%29.80 "HgN/A
1:50 pm93 °FPartly sunny.14 mph39%29.80 "HgN/A
1:20 pm91 °FPartly sunny.13 mph41%29.83 "HgN/A
12:50 pm91 °FPassing clouds.15 mph38%29.83 "HgN/A
12:20 pm91 °FSunny.16 mph36%29.83 "Hg10 mi
Weather by CustomWeather, © 2017

See weather overviewHow to use our weather pages